Change the Weather History Date:

Sunday, November 10, 2013

  Actual Average Record
Temperature  
Mean Temperature 54 °F -  
Max Temperature 59 °F 53 °F 68 °F (2006)
Min Temperature 50 °F 41 °F 35 °F (2000)
Degree Days  
Heating Degree Days 10    
Growing Degree Days 4 (Base 50)    
Moisture  
Dew Point 54 °F    
Average Humidity 98    
Maximum Humidity 100    
Minimum Humidity 88    
Precipitation  
Precipitation 0.00 in - - ()
Sea Level Pressure  
Sea Level Pressure 30.46 in    
Wind  
Wind Speed 2 mph ()    
Max Wind Speed 7 mph    
Max Gust Speed -    
Visibility 4.8 miles    
Events Fog    
Averages and records for this station are not official NWS values.
T = Trace of Precipitation, MM = Missing Value Source: Averaged Metar Reports

Daily Weather History Graph

Daily Weather History Graph

Search for Another Location

Airport or City:

Trip Planner

Search our weather history database for the weather conditions in past years. The results will help you decide how hot, cold, wet, or windy it might be!

Date:

Astronomy

Nov. 10, 2013 Rise Set
Actual Time 8:19 AM CET 6:15 PM CET
Civil Twilight 7:49 AM CET 6:45 PM CET
Nautical Twilight 7:15 AM CET 7:19 PM CET
Astronomical Twilight 6:42 AM CET 7:52 PM CET
Moon 2:22 PM CET (11/10) 12:32 AM CET (11/10)
Length of Visible Light 10h 55m
Length of Day
9h 55m
First Quarter, 52% of the Moon is Illuminated
Nov 10
First Quarter
Nov 17
Full
Nov 25
Last Quarter
Dec 3
New
Dec 9
First Quarter

Hourly Weather History & Observations

Time (CET) Temp. Dew Point Humidity Pressure Visibility Wind Dir Wind Speed Gust Speed Precip Events Conditions
12:00 AM 55.4 °F 55.4 °F 100% 30.39 in 5.6 mi West 3.5 mph - N/A   Mostly Cloudy
12:30 AM 53.6 °F 53.6 °F 100% 30.39 in 5.6 mi Variable 2.3 mph - N/A   Mostly Cloudy
1:00 AM 53.6 °F 53.6 °F 100% 30.39 in 5.0 mi Variable 2.3 mph - N/A   Mostly Cloudy
1:30 AM 53.6 °F 53.6 °F 100% 30.42 in 3.7 mi West 3.5 mph - N/A   Mostly Cloudy
2:00 AM 53.6 °F 53.6 °F 100% 30.42 in 3.7 mi Variable 2.3 mph - N/A   Mostly Cloudy
2:30 AM 53.6 °F 53.6 °F 100% 30.42 in 2.5 mi WNW 3.5 mph - N/A   Drizzle
3:00 AM 53.6 °F 53.6 °F 100% 30.42 in 3.7 mi Variable 2.3 mph - N/A   Light Drizzle
3:30 AM 53.6 °F 53.6 °F 100% 30.42 in 5.0 mi WNW 3.5 mph - N/A   Mostly Cloudy
4:00 AM 53.6 °F 53.6 °F 100% 30.42 in 5.6 mi WNW 5.8 mph - N/A   Mostly Cloudy
4:30 AM 53.6 °F 53.6 °F 100% 30.42 in 5.6 mi West 4.6 mph - N/A   Mostly Cloudy
5:00 AM 53.6 °F 53.6 °F 100% 30.42 in 5.6 mi WNW 6.9 mph - N/A   Mostly Cloudy
5:30 AM 53.6 °F 53.6 °F 100% 30.42 in 5.6 mi WNW 3.5 mph - N/A   Mostly Cloudy
6:00 AM 51.8 °F 51.8 °F 100% 30.45 in 1.2 mi Variable 1.2 mph - N/A Fog Patches of Fog
6:30 AM 53.6 °F 53.6 °F 100% 30.45 in 1.9 mi Calm Calm - N/A Fog Patches of Fog
7:00 AM 51.8 °F 51.8 °F 100% 30.45 in 3.1 mi Variable 2.3 mph - N/A Fog Patches of Fog
7:30 AM 51.8 °F 51.8 °F 100% 30.42 in 3.1 mi Variable 2.3 mph - N/A Fog Patches of Fog
8:00 AM 50.0 °F 50.0 °F 100% 30.45 in 5.0 mi Calm Calm - N/A Fog Patches of Fog
8:30 AM 51.8 °F 51.8 °F 100% 30.45 in 5.0 mi Variable 1.2 mph - N/A Fog Patches of Fog
9:00 AM 53.6 °F 53.6 °F 100% 30.45 in 3.7 mi Calm Calm - N/A Fog Patches of Fog
9:30 AM 53.6 °F 53.6 °F 100% 30.48 in 3.7 mi Variable 1.2 mph - N/A Fog Patches of Fog
10:00 AM 53.6 °F 53.6 °F 100% 30.48 in 3.1 mi Calm Calm - N/A Fog Patches of Fog
10:13 AM 53.6 °F 53.6 °F 100% 30.48 in 1.6 mi Variable 2.3 mph - N/A   Mostly Cloudy
10:30 AM 53.6 °F 53.6 °F 100% 30.48 in 1.9 mi Variable 2.3 mph - N/A   Mostly Cloudy
11:00 AM 53.6 °F 53.6 °F 100% 30.48 in 3.1 mi Variable 2.3 mph - N/A Fog Patches of Fog
11:30 AM 55.4 °F 55.4 °F 100% 30.48 in 3.1 mi Variable 2.3 mph - N/A Fog Patches of Fog
12:00 PM 57.2 °F 55.4 °F 94% 30.48 in 1.9 mi Variable 1.2 mph - N/A Fog Patches of Fog
12:30 PM 55.4 °F 55.4 °F 100% 30.48 in 2.5 mi Calm Calm - N/A Fog Patches of Fog
1:00 PM 57.2 °F 57.2 °F 100% 30.48 in 3.7 mi Variable 1.2 mph - N/A Fog Patches of Fog
1:30 PM 57.2 °F 55.4 °F 94% 30.48 in 5.0 mi Variable 2.3 mph - N/A Fog Patches of Fog
2:00 PM 57.2 °F 57.2 °F 100% 30.45 in 5.6 mi Variable 2.3 mph - N/A   Mostly Cloudy
2:30 PM 59.0 °F 57.2 °F 94% 30.45 in 6.2 mi Variable 2.3 mph - N/A   Mostly Cloudy
3:00 PM 59.0 °F 55.4 °F 88% 30.45 in 6.2 mi Variable 1.2 mph - N/A   Mostly Cloudy
3:30 PM 59.0 °F 55.4 °F 88% 30.45 in 6.2 mi Variable 2.3 mph - N/A   Mostly Cloudy
4:00 PM 59.0 °F 55.4 °F 88% 30.45 in 6.2 mi WNW 3.5 mph - N/A   Mostly Cloudy
4:30 PM 57.2 °F 55.4 °F 94% 30.45 in 6.2 mi NW 3.5 mph - N/A   Mostly Cloudy
5:00 PM 59.0 °F 55.4 °F 88% 30.45 in 6.2 mi Variable 2.3 mph - N/A   Mostly Cloudy
5:30 PM 57.2 °F 53.6 °F 88% 30.48 in 6.2 mi NW 4.6 mph - N/A   Mostly Cloudy
6:00 PM 57.2 °F 53.6 °F 88% 30.48 in 6.2 mi Variable 2.3 mph - N/A   Scattered Clouds
6:30 PM 55.4 °F 53.6 °F 94% 30.48 in 6.2 mi Variable 1.2 mph - N/A   Mostly Cloudy
7:00 PM 55.4 °F 53.6 °F 94% 30.48 in 6.2 mi North 4.6 mph - N/A   Mostly Cloudy
7:30 PM 53.6 °F 51.8 °F 94% 30.48 in 6.2 mi Variable 1.2 mph - N/A   Mostly Cloudy
8:00 PM 53.6 °F 51.8 °F 94% 30.51 in 6.2 mi Calm Calm - N/A   Mostly Cloudy
8:30 PM 53.6 °F 53.6 °F 100% 30.51 in 6.2 mi Calm Calm - N/A   Mostly Cloudy
9:00 PM 53.6 °F 53.6 °F 100% 30.51 in 6.2 mi Calm Calm - N/A   Mostly Cloudy
9:30 PM 53.6 °F 53.6 °F 100% 30.51 in 6.2 mi Calm Calm - N/A   Mostly Cloudy
10:00 PM 53.6 °F 53.6 °F 100% 30.51 in 6.2 mi Calm Calm - N/A   Mostly Cloudy
10:30 PM 53.6 °F 53.6 °F 100% 30.48 in 6.2 mi Calm Calm - N/A   Mostly Cloudy
11:00 PM 53.6 °F 53.6 °F 100% 30.48 in 6.2 mi Calm Calm - N/A   Mostly Cloudy
11:30 PM 53.6 °F 53.6 °F 100% 30.48 in 6.2 mi Calm Calm - N/A   Mostly Cloudy